Location: Rounton
(54.4000°N, 1.3500°W)
Time: 20:13:15
(UTC+00:00)

A-11 Canister half - Pass Details

Date: 07 December 2021
Orbit: 1516 x 1684 km, 47.2° (Epoch: 19 January)

Event Time Altitude Azimuth Distance (km) Brightness Sun altitude
Rises 10:12:00 0° 271° (W) 4,826 11.4 9.7°
Reaches altitude 10° 10:15:10 10° 267° (W) 3,861 10.9 9.9°
Maximum altitude 10:24:39 54° 194° (SSW) 1,962 10.3 10.4°
Drops below altitude 10° 10:34:22 10° 121° (ESE) 3,943 12.1 10.9°
Sets 10:37:38 0° 117° (ESE) 4,934 12.4 11.1°
